{"data":{"norad_id":67178,"epoch":"2026-09-20T18:58:11.406720Z","epoch_age_seconds":53548,"freshness":"FRESH","line1":"1 67178U 25303R   26263.79040980  .00008810  00000+0  32930-3 0  9994","line2":"2 67178  43.0033 288.8566 0001539 268.6481  91.4195 15.27577192 42573","mean_motion":15.27577192,"eccentricity":0.0001539,"inclination_deg":43.0033,"raan_deg":288.8566,"arg_perigee_deg":268.6481,"mean_anomaly_deg":91.4195,"bstar":0.0003293,"rev_number":4257,"period_min":94.266921995258,"perigee_km":482.00156638051,"apogee_km":484.1134420489,"semimajor_km":6861.1945042147,"source":"CELESTRAK","updated_at":"2026-09-21T09:00:36.113223Z"}}